Overview Statistics Trail Chart Weather Telemetry Raw packets
 

This is the latest recevied weather packets stored in our database for station/object W6MAF. If no packets are shown the sender has not sent any weather packets the latest 10 day(s).

<< 12 13 14 15 16 17 18 >>
Time Temp. Humidity Pressure Rain* Wind** Luminosity Snow
1788587374 18.33° C 30% - 0 mm 9.39 m/s, 167° - -
1788587076 18.33° C 29% - 0 mm 9.39 m/s, 163° - -
1788586779 18.33° C 29% - 0 mm 9.83 m/s, 174° - -
1788586481 18.33° C 29% - 0 mm 8.94 m/s, 191° - -
1788586183 18.33° C 29% - 0 mm 9.39 m/s, 184° - -
1788585886 18.33° C 27% - 0 mm 8.49 m/s, 183° - -
1788585585 18.33° C 25% - 0 mm 6.71 m/s, 186° - -
1788585287 18.33° C 24% - 0 mm 8.49 m/s, 186° - -
1788584989 18.89° C 24% - 0 mm 7.15 m/s, 177° - -
1788584692 18.89° C 23% - 0 mm 6.26 m/s, 195° - -
1788584394 18.89° C 22% - 0 mm 7.6 m/s, 180° - -
1788584096 19.44° C 21% - 0 mm 5.81 m/s, 187° - -
1788583795 19.44° C 21% - 0 mm 6.71 m/s, 204° - -
1788583498 19.44° C 21% - 0 mm 7.15 m/s, 197° - -
1788583200 19.44° C 19% - 0 mm 6.71 m/s, 203° - -
1788582902 19.44° C 18% - 0 mm 8.49 m/s, 195° - -
1788582606 19.44° C 19% - 0 mm 8.94 m/s, 191° - -
1788582006 19.44° C 19% - 0 mm 7.6 m/s, 214° - -
1788581708 19.44° C 20% - 0 mm 8.05 m/s, 193° - -
1788581411 19.44° C 21% - 0 mm 7.15 m/s, 183° - -
1788581113 19.44° C 23% - 0 mm 8.05 m/s, 193° - -
1788580815 19.44° C 25% - 0 mm 6.71 m/s, 205° - -
1788580517 19.44° C 25% - 0 mm 6.26 m/s, 187° - -
1788580217 20° C 24% - 0 mm 8.49 m/s, 191° - -
1788579919 20° C 24% - 0 mm 8.05 m/s, 193° - -

* Rain latest hour (hover to see other rain measurements)
** Current wind speed in m/s (hover to see current wind gust speed)